Regional Weather Roundup
Issued by NWS

Home | Current Version | Previous Version | Text Only | Print | Product List | Glossary On
Versions: 1 2 3 4 5 6 7 8 9 10 11 12 13 14 15 16 17 18 19 20 21 22 23 24 25 26 27 28 29 30 31 32 33 34 35 36 37 38 39 40 41 42 43 44 45 46 47 48 49 50
000
ASUS43 KMKX 151810
RWRWI

WISCONSIN REGIONAL WEATHER ROUNDUP
NATIONAL WEATHER SERVICE MILWAUKEE/SULLIVAN WI
1200 PM CST FRI DEC 15 2017

NOTE: "FAIR" INDICATES FEW OR NO CLOUDS BELOW 12,000 FEET WITH NO
SIGNIFICANT WEATHER AND/OR OBSTRUCTIONS TO VISIBILITY.

WIZ001-002-006>008-014>016-023>028-151900-
NORTHWEST WISCONSIN

CITY           SKY/WX    TMP DP  RH WIND       PRES   REMARKS
SUPERIOR ARPT  CLOUDY    16   6  65 W7        29.87F WCI   6
6HR MIN TEMP:  13; 6HR MAX TEMP:  16;

ASHLAND        CLOUDY    15   5  64 NW10      29.85F WCI   2
6HR MIN TEMP:  14; 6HR MAX TEMP:  15; 6HR PCP: TRACE;

HAYWARD        PTSUNNY   16   6  65 W6        29.83F WCI   7
6HR MIN TEMP:  14; 6HR MAX TEMP:  16; 6HR PCP: TRACE;

SIREN          CLOUDY    18   8  65 W5        29.85F WCI  11
6HR MIN TEMP:  13; 6HR MAX TEMP:  19;

CUMBERLAND     CLOUDY    14   9  79 NW3       29.84F
RICE LAKE      CLOUDY    16   8  72 CALM      29.86F
6HR MIN TEMP:  13; 6HR MAX TEMP:  16;

CHETEK         CLOUDY    17   9  69 CALM      29.86F
6HR MIN TEMP:   7; 6HR MAX TEMP:  17;

LADYSMITH      PTSUNNY   16   8  70 W7        29.85S WCI   6
6HR MIN TEMP:  14; 6HR MAX TEMP:  17;

EAU CLAIRE     CLOUDY    19  12  74 NW8       29.86F WCI   9
6HR MIN TEMP:  16; 6HR MAX TEMP:  19;

MENOMONIE      CLOUDY    22  14  71 W3        29.87F
6HR MIN TEMP:  19; 6HR MAX TEMP:  22;

NEW RICHMOND   CLOUDY    20  12  70 NW6       29.87F WCI  12
6HR MIN TEMP:  16; 6HR MAX TEMP:  20;

OSCEOLA        PTSUNNY   20  11  69 CALM      29.90F
6HR MIN TEMP:  16; 6HR MAX TEMP:  20;

$$

WIZ003>005-009-010-017-018-151900-
NORTH CENTRAL WISCONSIN

CITY           SKY/WX    TMP DP  RH WIND       PRES   REMARKS
MANITOWISH WTR CLOUDY    13   6  73 W9        29.76F WCI   0
6HR MIN TEMP:  11; 6HR MAX TEMP:  13;

ARBOR VITAE    LGT SNOW  15   9  76 NW8       29.76S WCI   5
6HR MIN TEMP:  13; 6HR MAX TEMP:  17;

WOODRUFF       LGT SNOW  15   9  76 NW8       29.76S WCI   5
6HR MIN TEMP:  13; 6HR MAX TEMP:  17;

RHINELANDER    CLOUDY    14   7  73 W9        29.77S WCI   2
6HR MIN TEMP:  11; 6HR MAX TEMP:  14; 6HR PCP: TRACE;

EAGLE RIVER    FLURRIES  15   6  69 W13       29.74S WCI   1
6HR MIN TEMP:  11; 6HR MAX TEMP:  15;

LAND O LAKES   PTSUNNY   19   9  67 NW10      29.74S WCI   7
6HR MIN TEMP:  12; 6HR MAX TEMP:  19;

PHILLIPS       CLOUDY    14   6  72 W6        29.79F WCI   5
TOMAHAWK       LGT SNOW  14   8  76 W8        29.79F WCI   3
6HR MIN TEMP:  10; 6HR MAX TEMP:  14;

MEDFORD        CLOUDY    14   7  73 W9        29.80S WCI   2
6HR MIN TEMP:  12; 6HR MAX TEMP:  14;

MERRILL        LGT SNOW  16   9  73 W9        29.81F WCI   4
6HR MIN TEMP:  13; 6HR MAX TEMP:  16;

$$

WIZ029-030-035-036-043>047-151900-
CENTRAL WISCONSIN

CITY           SKY/WX    TMP DP  RH WIND       PRES   REMARKS
WAUSAU         CLOUDY    16   7  67 W13       29.80F WCI   2
6HR MIN TEMP:  15; 6HR MAX TEMP:  17; 6HR PCP: TRACE;

MOSINEE        CLOUDY    16   9  73 NW9       29.83F WCI   4
MARSHFIELD     MOSUNNY   17   8  67 W10       29.82S WCI   5
6HR MIN TEMP:  14; 6HR MAX TEMP:  18; 6HR PCP: TRACE;

STEVENS POINT  CLOUDY    18   9  66 W9        29.83F WCI   7
6HR MIN TEMP:  16; 6HR MAX TEMP:  18;

WAUPACA        PTSUNNY   23  10  59 W12G20    29.85F WCI  11
6HR MIN TEMP:  22; 6HR MAX TEMP:  24;

WAUTOMA        FLURRIES  22  12  65 W15G24    29.85F WCI   9
6HR MIN TEMP:  19; 6HR MAX TEMP:  24; 6HR PCP: TRACE;

WISC RAPIDS    CLOUDY    20   9  62 NW9       29.85F WCI   9
6HR MIN TEMP:  19; 6HR MAX TEMP:  20; 6HR PCP: TRACE;

CAMP DOUGLAS   CLOUDY    27  18  69 W10G17    29.85F WCI  17
                                      6HR PCP: TRACE;

$$

WIZ011>013-019>022-031-037>040-048>050-151900-
NORTHEAST WISCONSIN

CITY           SKY/WX    TMP DP  RH WIND       PRES   REMARKS
ANTIGO         FLURRIES  14   7  73 NW12G17   29.78S WCI   0
6HR MIN TEMP:  11; 6HR MAX TEMP:  14;

SHAWANO        PTSUNNY   21   9  59 NW10G18   29.82F WCI  10
6HR MIN TEMP:  19; 6HR MAX TEMP:  22;

OCONTO         SUNNY     20   8  61 W16G22    29.81S WCI   5
6HR MIN TEMP:  12; 6HR MAX TEMP:  20;

STURGEON BAY   CLOUDY    21  12  68 W10G21    29.79F WCI  10
6HR MIN TEMP:  18; 6HR MAX TEMP:  21; 6HR PCP: TRACE;

GREEN BAY      PTSUNNY   20   8  60 W14       29.83F WCI   7
6HR MIN TEMP:  18; 6HR MAX TEMP:  21;

MANITOWOC      PTSUNNY   23  12  62 W14       29.83F WCI  11
6HR MIN TEMP:  20; 6HR MAX TEMP:  26; 6HR PCP: TRACE;

APPLETON       PTSUNNY   19   7  58 NW15      29.81F WCI   5
CLINTONVILLE   CLOUDY    19   9  63 NW14      29.83F WCI   6
OSHKOSH        CLOUDY    22  11  62 W14G20    29.83F WCI   9
6HR MIN TEMP:  20; 6HR MAX TEMP:  22; 6HR PCP: TRACE;

$$

WIZ032>034-041-042-053>061-151900-
SOUTHWEST WISCONSIN

CITY           SKY/WX    TMP DP  RH WIND       PRES   REMARKS
LA CROSSE      CLOUDY    30  21  69 CALM      29.87F
6HR MIN TEMP:  24; 6HR MAX TEMP:  30;

SPARTA         CLOUDY    27  20  75 W7        29.87F WCI  19
6HR MIN TEMP:  21; 6HR MAX TEMP:  27;

VIROQUA        CLOUDY    28  25  89 CALM      29.84F
6HR MIN TEMP:  20; 6HR MAX TEMP:  28;

BOSCOBEL       CLOUDY    30  22  72 W6        29.90F WCI  24
6HR MIN TEMP:  25; 6HR MAX TEMP:  30;

PRAIRIE DU CHI CLOUDY    30  24  77 SW7       29.89F WCI  23
6HR MIN TEMP:  26; 6HR MAX TEMP:  30;

PLATTEVILLE    CLOUDY    30  26  85 SW13      29.89F WCI  20
6HR MIN TEMP:  23; 6HR MAX TEMP:  30;

$$

WIZ056-057-062-063-064-067-068-151900-
SOUTH CENTRAL WISCONSIN

CITY           SKY/WX    TMP DP  RH WIND       PRES   REMARKS
REEDSBURG      CLOUDY    27  18  67 W13       29.86F WCI  17
6HR MIN TEMP:  22; 6HR MAX TEMP:  27;

BARABOO/DELLS  CLOUDY    26  17  67 W14       29.85F WCI  15
6HR MIN TEMP:  21; 6HR MAX TEMP:  27;

LONE ROCK      CLOUDY    30  22  72 MISG      29.88F
6HR MIN TEMP:  24; 6HR MAX TEMP:  30;

MINERAL POINT  FLURRIES  32  27  80 SW8       29.86F WCI  25
MADISON        CLOUDY    27  16  63 W8        29.87F WCI  19
6HR MIN TEMP:  23; 6HR MAX TEMP:  27; 6HR PCP: TRACE;

MIDDLETON      CLOUDY    30  19  62 W13       29.87F WCI  20
6HR MIN TEMP:  25; 6HR MAX TEMP:  30;

WATERTOWN      CLOUDY    26  17  66 W14       29.86F WCI  15
6HR MIN TEMP:  21; 6HR MAX TEMP:  26;

MONROE         CLOUDY    30  21  69 SW18      29.88F WCI  18
JANESVILLE     CLOUDY    30  18  59 W12       29.88F WCI  21
$$

WIZ051-052-058>065-066-070>072-151900-
SOUTHEAST WISCONSIN

CITY           SKY/WX    TMP DP  RH WIND       PRES   REMARKS
MILWAUKEE      MOSUNNY   27  14  58 NW24G35   29.86F WCI  12
6HR MIN TEMP:  24; 6HR MAX TEMP:  29; 6HR PCP: TRACE;

WAUKESHA       CLOUDY    25  12  58 W17G28    29.87S WCI  11
MILWAUKEE/TIMM PTSUNNY   27  10  50 W16G24    29.87F WCI  14
RACINE         MOSUNNY   28  13  53 NW16G23   29.88F WCI  16
6HR MIN TEMP:  23; 6HR MAX TEMP:  28; 6HR PCP: TRACE;

BURLINGTON     PTSUNNY   28  17  62 W15G23    29.87F WCI  16
6HR MIN TEMP:  23; 6HR MAX TEMP:  29;

KENOSHA        PTSUNNY   30  14  51 W17G26    29.87F WCI  18
6HR MIN TEMP:  24; 6HR MAX TEMP:  31; 6HR PCP: TRACE;

FOND DU LAC    MOSUNNY   22   9  57 W12       29.84F WCI  10
6HR MIN TEMP:  22; 6HR MAX TEMP:  23; 6HR PCP: TRACE;

SHEBOYGAN      FLURRIES  22  14  71 W13       29.83F WCI  10
6HR MIN TEMP:  21; 6HR MAX TEMP:  23; 6HR PCP: TRACE;

WEST BEND      CLOUDY    23  14  68 W16       29.84F WCI  10
JUNEAU         CLOUDY    22  14  70 W7        29.87S WCI  14
6HR MIN TEMP:  20; 6HR MAX TEMP:  22;

$$

LSZ147-162-151900-
LAKE SUPERIOR

STATION/POSITION TIME  TEMP    WIND        PRES    WAVE
                       AIR SEA DIR/SP/G            HT/PER
                 (UTC) (F)     (DEG/KT/KT) (MB)    (FT/S)
DEVILS ISLAND    1800   15     290/ 11/ 14 1011.9F
SAXON HARBOR     1740   17                 1010.8S
$$

LMZ867-665-643>646-151900-
LAKE MICHIGAN

STATION/POSITION TIME  TEMP    WIND        PRES    WAVE
                       AIR SEA DIR/SP/G            HT/PER
                 (UTC) (F)     (DEG/KT/KT) (MB)    (FT/S)
NORTHPORT PIER   1740



USA.gov is the U.S. government's official web portal to all federal, state and local government web resources and services.